Wind_Speed
40 39 38 37 36 34 33 31 30 29 29 29 28 28 28 27 27 27 28 28 28 28 29 29 30 30 30 30 30 31 31 31 32 31 31 31 31 32 32 32 32 32 31
41 41 40 39 39 37 36 34 33 32 32 32 31 31 31 30 29 29 30 29 30 30 30 31 32 32 32 32 33 33 33 33 33 33 33 33 33 33 33 33 33 32 33
43 43 42 41 41 40 39 38 36 35 34 34 34 33 33 33 32 32 32 32 32 32 33 33 33 34 34 34 34 35 35 35 35 35 35 35 35 35 35 35 34 33 33
44 44 44 43 43 42 41 40 39 38 37 37 37 36 36 35 35 35 34 34 34 34 34 35 36 36 37 37 37 36 37 37 37 37 37 36 36 37 37 36 34 34 34
44 45 45 45 45 44 44 43 42 41 41 41 40 39 39 38 38 37 37 37 36 36 37 37 38 38 39 39 39 38 39 39 38 38 37 37 37 37 37 37 36 36 36
46 46 45 45 45 45 46 45 44 43 43 43 42 42 41 41 40 40 40 40 39 39 39 39 39 39 40 40 40 40 41 40 40 39 38 38 39 38 38 38 37 37 38
45 46 47 46 45 45 46 46 45 45 44 44 44 43 43 43 43 43 43 43 42 42 41 41 41 41 41 42 42 42 41 41 41 41 40 40 40 39 39 39 39 39 40
47 47 47 48 47 47 47 47 47 47 46 46 46 46 45 45 44 44 44 45 44 44 43 43 43 43 43 44 43 43 41 41 42 42 42 41 41 41 41 41 41 41 41
48 47 47 48 48 49 49 48 48 48 48 48 48 48 48 47 46 46 46 47 46 45 45 45 45 45 45 45 44 43 42 42 42 42 42 42 41 41 42 42 41 41 41
46 46 47 48 47 47 48 48 49 48 49 49 48 48 49 49 49 47 47 47 46 46 46 46 46 46 45 44 44 44 43 42 43 43 43 43 42 42 42 41 42 41 40
44 44 45 46 46 46 47 48 48 48 49 49 48 48 49 48 48 47 47 46 46 46 46 47 45 45 45 45 45 45 45 45 45 44 43 42 42 42 42 41 41 41 40
44 43 44 44 45 46 47 48 48 49 49 50 50 49 49 48 47 47 47 47 47 47 48 47 46 46 47 47 47 47 47 46 45 44 44 43 43 43 42 42 42 41 40
44 42 43 44 45 46 46 47 50 51 50 50 52 51 51 51 50 48 48 49 49 48 48 49 48 48 48 48 49 48 47 47 46 45 44 43 44 43 42 42 42 42 41
41 42 42 43 44 45 46 49 51 53 52 52 52 53 53 52 52 50 50 50 50 50 50 50 50 49 48 49 49 48 48 48 47 46 45 45 45 43 42 42 42 41 41
39 40 40 42 43 44 46 47 49 51 52 53 53 52 53 54 54 53 52 53 53 53 52 52 52 51 51 51 51 51 50 50 49 47 45 45 44 43 43 42 42 41 41
39 39 40 41 42 43 45 46 49 51 52 52 52 53 54 56 57 57 56 56 56 56 56 55 55 54 53 53 53 53 52 51 50 47 45 45 44 43 43 43 43 42 42
37 37 39 40 41 43 45 47 49 51 51 51 53 55 55 56 57 57 57 57 57 57 58 56 56 55 55 55 54 53 52 51 49 48 46 45 44 44 43 43 43 42 41
34 36 37 39 40 42 45 46 47 49 50 51 53 55 55 56 56 56 56 57 58 59 59 59 57 56 57 56 54 51 50 49 48 47 46 46 45 44 44 43 43 42 41
30 32 35 38 40 42 44 45 46 47 50 51 53 54 54 55 55 56 57 58 59 58 59 60 59 58 58 57 53 51 50 49 48 47 47 47 45 45 45 44 43 41 40
28 31 35 37 39 42 43 44 45 47 49 50 51 52 52 53 54 56 57 58 59 59 58 59 60 58 56 55 53 51 50 49 48 48 47 46 45 44 44 43 41 40 38
29 31 34 37 39 41 42 44 45 46 47 48 49 49 49 51 52 54 55 56 57 57 57 57 57 57 55 53 53 51 51 50 48 47 45 45 44 44 43 42 40 38 36
29 32 34 36 38 39 41 42 41 42 44 45 46 47 49 51 52 53 53 54 54 54 54 54 55 54 53 52 51 50 49 49 47 46 45 45 44 44 42 40 38 37 34
28 30 33 35 37 38 39 40 41 42 43 44 45 45 46 47 49 50 52 52 52 53 53 53 52 51 50 50 50 49 48 47 46 45 45 44 43 42 40 38 36 34 33
29 31 32 34 37 39 39 40 41 42 42 43 44 44 45 46 47 48 49 49 50 50 49 49 49 50 49 48 47 47 47 46 44 43 43 42 42 42 40 37 34 33 32
31 34 35 35 36 37 39 40 41 43 43 44 44 45 45 46 46 46 47 46 46 46 45 45 46 46 46 45 45 45 45 44 43 43 43 42 41 40 37 35 33 32 32
34 35 36 37 37 37 38 39 41 44 43 44 44 45 45 45 45 44 44 44 43 43 43 44 44 43 44 45 45 45 44 43 42 42 42 41 39 38 36 34 33 32 31
Wind_Direction
244 246 248 249 250 251 252 253 254 255 256 257 259 260 262 263 265 267 269 270 272 272 274 276 278 280 283 285 287 290 293 294 296 298 300 301 303 305 308 310 311 312 313
244 245 247 248 249 250 252 253 254 255 256 257 258 260 261 263 264 266 268 269 271 272 274 276 278 279 281 283 285 288 290 292 293 295 297 298 300 302 304 307 308 309 310
244 245 246 247 249 250 252 253 254 255 256 258 259 260 261 262 263 264 266 268 271 272 273 274 276 278 281 282 284 286 288 289 291 293 294 295 297 300 301 303 304 305 308
243 245 247 247 248 250 252 253 254 255 256 258 259 259 260 261 262 263 264 267 269 271 272 274 275 277 279 281 283 285 286 287 289 291 292 293 295 297 299 300 301 303 305
243 244 247 248 249 250 252 253 255 256 257 258 260 260 260 261 263 264 265 266 268 270 272 273 275 277 278 279 281 283 285 287 288 289 290 292 294 296 297 298 299 301 303
244 244 246 248 250 251 252 254 256 258 259 259 260 261 261 262 263 265 266 266 267 269 271 272 274 276 277 279 281 283 284 285 286 287 289 290 292 294 295 296 297 299 302
245 246 247 248 250 252 254 254 256 258 258 260 261 261 262 263 263 264 265 266 267 268 269 270 272 274 275 277 279 282 282 283 284 285 286 288 290 292 293 295 296 298 300
245 246 247 248 250 252 253 255 257 258 258 260 261 263 263 263 263 264 265 266 266 267 268 269 271 273 274 275 278 279 280 282 283 284 285 286 288 289 291 293 295 297 299
244 247 248 249 251 253 254 255 257 258 258 259 260 261 263 264 264 264 264 265 265 265 266 267 270 272 273 274 276 276 279 281 283 284 286 288 287 288 290 292 294 296 298
245 246 248 249 250 252 254 255 256 257 258 258 260 262 264 264 265 265 265 266 266 266 267 268 270 271 273 275 276 277 278 280 282 283 285 287 288 288 289 292 294 296 296
244 246 247 249 251 253 254 255 257 259 259 260 261 262 263 264 266 267 266 266 266 266 266 267 270 272 273 274 275 276 277 279 280 282 283 285 287 288 289 291 293 294 295
245 248 250 252 254 256 257 259 259 261 261 261 261 262 263 264 265 266 267 266 266 267 267 268 269 271 272 273 274 275 276 277 279 280 282 283 285 287 288 290 292 293 295
245 248 250 254 255 257 259 259 259 261 262 263 262 262 262 263 264 265 265 265 265 267 267 267 269 272 272 272 274 274 275 277 278 279 281 282 283 285 287 288 291 292 294
246 249 251 254 257 260 261 262 261 260 261 263 263 262 262 262 263 265 265 265 265 265 266 267 268 270 271 273 273 273 275 276 276 278 278 280 282 283 285 287 290 291 293
249 252 252 255 260 262 263 263 261 261 262 263 264 263 263 262 263 264 265 265 266 266 266 267 269 270 271 272 273 274 274 275 276 277 278 280 281 281 283 285 288 289 291
252 253 254 257 261 263 265 265 263 262 264 265 264 263 264 265 266 265 265 265 266 267 267 268 268 269 269 271 272 274 274 274 274 275 277 279 280 280 281 283 285 287 289
253 255 258 260 263 265 266 267 265 265 265 266 265 265 265 265 266 266 267 267 266 266 267 267 268 269 269 270 271 272 271 272 272 273 274 276 277 278 280 283 284 286 287
256 257 260 263 266 268 269 269 268 267 267 267 267 267 266 266 267 268 268 267 267 266 266 266 267 267 267 269 270 270 270 270 271 272 273 274 276 278 280 282 283 284 286
260 262 266 269 270 272 273 271 270 270 269 269 268 268 268 267 267 268 269 269 268 266 267 267 266 266 266 267 268 268 268 268 269 271 272 273 275 277 279 280 282 283 284
269 269 272 274 275 276 276 275 274 273 272 271 270 269 270 269 270 270 271 271 269 267 267 267 266 266 266 265 266 266 267 268 268 270 272 273 276 278 278 278 279 280 281
276 277 278 279 280 280 280 279 277 276 275 274 272 270 271 270 271 271 271 271 270 268 267 267 267 266 264 264 265 265 266 266 267 270 272 273 276 277 277 277 277 277 277
285 283 282 283 283 283 281 279 279 279 278 276 274 271 270 270 271 270 270 271 270 268 268 268 267 267 266 265 265 264 265 265 266 269 271 272 274 274 274 274 274 273 273
294 293 290 287 287 285 282 280 280 281 280 278 275 273 271 270 271 271 271 270 269 268 268 268 267 266 264 263 263 265 265 265 266 268 269 270 270 270 271 271 270 269 269
299 299 297 294 292 289 286 285 283 282 281 279 276 274 272 272 275 273 271 270 270 269 268 266 264 263 262 262 261 262 262 264 264 266 266 268 267 268 269 267 266 265 266
302 302 300 298 296 295 293 291 288 286 283 280 277 277 276 274 276 275 272 270 270 267 265 264 262 261 260 258 259 261 262 262 262 262 264 266 265 265 264 264 263 263 263
304 303 302 301 300 299 297 295 291 288 285 283 281 278 277 275 275 275 273 270 269 266 265 264 261 259 260 259 259 262 262 261 260 261 262 261 261 260 261 260 260 260 260
Height
5813 5817 5820 5822 5825 5827 5829 5831 5833 5834 5835 5837 5838 5838 5839 5840 5840 5840 5841 5841 5840 5840 5840 5840 5839 5838 5838 5836 5835 5834 5833 5831 5829 5827 5825 5823 5821 5819 5816 5813 5811 5808 5805
5806 5809 5812 5815 5818 5820 5822 5824 5826 5828 5829 5830 5831 5832 5833 5834 5834 5834 5834 5834 5834 5834 5834 5834 5833 5832 5831 5830 5829 5828 5826 5825 5823 5821 5820 5817 5815 5813 5810 5808 5805 5802 5800
5798 5801 5804 5807 5810 5812 5815 5817 5819 5821 5822 5823 5825 5825 5826 5827 5827 5828 5828 5828 5828 5828 5827 5827 5826 5826 5825 5824 5823 5821 5820 5818 5817 5815 5813 5811 5809 5807 5805 5802 5799 5797 5794
5790 5793 5796 5799 5801 5804 5807 5809 5811 5813 5814 5816 5817 5818 5818 5819 5820 5820 5821 5821 5821 5821 5820 5820 5819 5818 5818 5817 5815 5814 5813 5811 5809 5808 5806 5804 5802 5800 5798 5796 5793 5791 5788
5781 5784 5787 5790 5793 5796 5798 5801 5803 5805 5806 5807 5808 5809 5810 5811 5812 5812 5813 5813 5813 5813 5812 5812 5811 5811 5810 5809 5808 5806 5805 5804 5802 5800 5799 5797 5795 5793 5791 5788 5786 5784 5781
5772 5775 5778 5781 5784 5787 5789 5792 5794 5796 5797 5798 5799 5800 5802 5803 5803 5804 5804 5804 5804 5804 5804 5803 5803 5802 5801 5800 5800 5798 5797 5796 5794 5792 5791 5789 5788 5785 5783 5781 5779 5777 5774
5762 5765 5769 5772 5775 5778 5780 5783 5784 5786 5788 5789 5790 5791 5793 5793 5794 5794 5794 5794 5794 5794 5794 5794 5794 5793 5792 5792 5791 5790 5788 5787 5786 5784 5783 5781 5780 5778 5776 5773 5771 5769 5767
5752 5756 5759 5762 5765 5768 5770 5773 5775 5777 5778 5779 5780 5780 5782 5784 5783 5783 5783 5784 5784 5784 5784 5784 5784 5783 5783 5782 5781 5780 5779 5778 5777 5775 5774 5773 5771 5770 5768 5765 5763 5761 5759
5743 5746 5749 5752 5755 5758 5760 5763 5765 5766 5768 5768 5768 5769 5770 5772 5772 5773 5773 5773 5773 5773 5773 5773 5773 5773 5773 5772 5772 5771 5770 5769 5767 5766 5765 5764 5762 5761 5759 5757 5755 5753 5751
5733 5737 5740 5743 5745 5747 5750 5752 5754 5755 5756 5757 5757 5758 5759 5759 5760 5761 5762 5762 5762 5762 5763 5763 5762 5762 5762 5762 5762 5761 5760 5759 5758 5757 5756 5754 5753 5752 5750 5748 5746 5744 5742
5724 5727 5730 5733 5735 5737 5739 5741 5743 5744 5745 5746 5746 5746 5747 5747 5748 5748 5749 5751 5751 5751 5751 5752 5752 5752 5752 5752 5751 5751 5750 5749 5748 5747 5746 5745 5744 5742 5741 5739 5737 5735 5733
5715 5718 5721 5723 5725 5727 5729 5731 5732 5732 5733 5734 5734 5734 5735 5736 5737 5737 5737 5738 5739 5740 5740 5740 5741 5741 5741 5740 5740 5740 5739 5738 5738 5737 5736 5735 5734 5733 5732 5730 5728 5727 5725
5706 5709 5711 5713 5715 5717 5718 5719 5720 5721 5721 5722 5722 5722 5723 5724 5724 5724 5724 5726 5727 5728 5728 5729 5729 5729 5729 5729 5728 5728 5728 5727 5727 5726 5725 5724 5724 5723 5722 5720 5719 5717 5716
5696 5699 5701 5703 5704 5705 5706 5707 5708 5708 5708 5709 5710 5710 5710 5711 5711 5711 5712 5713 5713 5715 5716 5717 5717 5717 5717 5717 5717 5716 5716 5715 5715 5715 5714 5713 5713 5712 5711 5710 5709 5707 5706
5686 5688 5690 5692 5693 5694 5694 5695 5695 5695 5696 5696 5697 5697 5697 5698 5698 5699 5699 5700 5700 5701 5703 5705 5705 5705 5704 5704 5704 5704 5704 5704 5703 5703 5702 5702 5701 5701 5701 5700 5699 5697 5696
5676 5678 5680 5681 5682 5682 5683 5682 5682 5682 5682 5683 5683 5683 5684 5684 5684 5685 5685 5685 5685 5686 5688 5691 5692 5692 5691 5691 5691 5691 5691 5690 5691 5690 5690 5690 5690 5690 5689 5689 5688 5687 5686
5666 5668 5669 5670 5671 5670 5670 5669 5669 5669 5668 5668 5668 5669 5670 5670 5670 5670 5670 5670 5670 5670 5671 5675 5676 5676 5676 5677 5677 5677 5677 5677 5677 5678 5678 5678 5678 5678 5678 5678 5677 5676 5675
5655 5657 5658 5659 5659 5658 5657 5656 5655 5655 5654 5654 5654 5654 5655 5655 5655 5655 5655 5655 5655 5655 5655 5657 5660 5660 5661 5662 5662 5662 5663 5663 5664 5665 5665 5666 5666 5666 5666 5666 5666 5665 5664
5646 5647 5648 5648 5647 5646 5644 5643 5642 5641 5640 5640 5639 5639 5639 5639 5639 5639 5639 5639 5638 5639 5638 5639 5642 5643 5645 5646 5647 5647 5648 5649 5650 5651 5652 5653 5653 5654 5654 5654 5654 5654 5654
5637 5638 5638 5637 5636 5634 5632 5630 5629 5628 5626 5625 5624 5624 5624 5624 5624 5623 5623 5622 5622 5621 5621 5622 5623 5626 5628 5629 5631 5632 5634 5635 5637 5638 5639 5640 5641 5641 5642 5642 5643 5643 5643
5628 5628 5628 5626 5624 5622 5619 5618 5616 5614 5612 5611 5610 5609 5609 5608 5607 5607 5607 5606 5605 5604 5604 5605 5606 5609 5611 5613 5616 5618 5619 5621 5623 5624 5626 5627 5628 5629 5629 5630 5631 5632 5633
5620 5619 5618 5616 5613 5610 5607 5605 5603 5601 5599 5597 5596 5595 5594 5593 5592 5591 5590 5589 5589 5588 5588 5589 5590 5592 5595 5598 5600 5602 5604 5607 5609 5612 5613 5614 5615 5617 5618 5619 5620 5621 5622
5612 5610 5607 5605 5602 5598 5595 5593 5590 5588 5585 5583 5581 5580 5580 5578 5576 5575 5574 5573 5572 5572 5572 5573 5574 5577 5580 5583 5585 5588 5590 5592 5595 5598 5599 5601 5603 5605 5606 5607 5609 5610 5612
5604 5601 5597 5593 5590 5586 5583 5580 5577 5574 5571 5569 5567 5566 5565 5563 5561 5559 5558 5557 5557 5557 5557 5557 5559 5563 5565 5568 5571 5574 5576 5578 5581 5584 5586 5589 5591 5593 5594 5596 5598 5600 5602
5595 5591 5587 5583 5579 5575 5571 5567 5564 5561 5558 5555 5553 5551 5549 5547 5546 5544 5543 5543 5542 5542 5542 5543 5545 5548 5551 5554 5557 5559 5561 5564 5567 5570 5573 5576 5579 5581 5583 5586 5588 5590 5592
5586 5582 5577 5572 5567 5563 5559 5555 5551 5548 5545 5542 5540 5537 5534 5533 5531 5529 5528 5528 5528 5529 5530 5531 5532 5534 5537 5540 5543 5545 5548 5551 5553 5557 5560 5564 5567 5569 5572 5575 5577 5580 5582